sat.trackr.live / text

‹ back to catalog

STARLINK-2658

NORAD 48473 · 2021-040AX

PAYLOAD ACTIVE UNKNOWN

§ Identity

Operator
Country
US
Launch date
2021-05-09
Launch site
AFETR
Launch vehicle
Mass (kg)
RCS (m²)

Purposes: comms

External: N2YO · Heavens-Above · Gunter

§ Orbital elements

Epoch: 2026-09-20T00:20:28.722048Z

Period
94.01 min
Inclination
53.1622°
Eccentricity
0.0001155
Mean motion
15.31677350 rev/d
Perigee alt
470.0 km
Apogee alt
471.6 km
Semi-major
6,848.9 km
B*
-7.1200e-5
RAAN
6.6541°
Arg perigee
90.1754°
Mean anomaly
269.9380°
Rev number
29,627

§ Raw data

STARLINK-26581 48473U 21040AX  26263.01422132 -.00002572  00000+0 -71200-4 0  99982 48473  53.1622   6.6541 0001155  90.1754 269.9380 15.31677350296278

JSON: /api/v1/satellites/48473 · /tle

For live sub-satellite position, see the globe view (requires WebGL).

§ Visibility from observer

Set your observer location to see the next 7 days of passes ≥ 10°. The values pass through the URL so the page stays shareable.

No JS? Fill the form by hand. The geolocation button needs JavaScript.